Weather History for Palmdale, CA

Change the Weather History Date:

Wednesday, December 12, 2012

  Actual Average Record
Temperature  
Mean Temperature 53 °F 44 °F  
Max Temperature 57 °F 58 °F 80 °F (1950)
Min Temperature 48 °F 31 °F 12 °F (1972)
Degree Days  
Heating Degree Days 12 21  
Month to date heating degree days 139 238  
Since 1 July heating degree days 515 765  
Cooling Degree Days 0 0  
Month to date cooling degree days 0 0  
Year to date cooling degree days 2317 1815  
Growing Degree Days 2 (Base 50)    
Moisture  
Dew Point 37 °F    
Average Humidity 51    
Maximum Humidity 71    
Minimum Humidity 30    
Precipitation  
Precipitation T in 0.03 in 1.10 in (2014)
Month to date precipitation T 0.19  
Year to date precipitation 1.90 7.34  
Since 1 July precipitation 0.11 2.02  
Snow  
Snow 0.00 in - T in (1961)
Month to date snowfall 0.0  
Since 1 July snowfall 0.0  
Snow Depth 0.00 in    
Sea Level Pressure  
Sea Level Pressure 29.82 in    
Wind  
Wind Speed 16 mph (WSW)    
Max Wind Speed 31 mph    
Max Gust Speed 35 mph    
Visibility 10 miles    
Events Rain    
T = Trace of Precipitation, MM = Missing Value Source: NWS Daily Summary

Daily Weather History Graph

Daily Weather History Graph

Search for Another Location

Airport:

Trip Planner

Search our weather history database for the weather conditions in past years. The results will help you decide how hot, cold, wet, or windy it might be!

Date:

Astronomy

Dec. 12, 2012 Rise Set
Actual Time 6:50 AM PST 4:42 PM PST
Civil Twilight 6:22 AM PST 5:10 PM PST
Nautical Twilight 5:50 AM PST 5:41 PM PST
Astronomical Twilight 5:20 AM PST 6:12 PM PST
Moon 6:00 AM PST (12/12) 4:23 PM PST (12/12)
Length of Visible Light 10h 47m
Length of Day
9h 52m
Waning Crescent, 0% of the Moon is Illuminated
Dec 12
Waning Crescent
Dec 13
New
Dec 19
First Quarter
Dec 28
Full
Jan 4
Last Quarter

Hourly Weather History & Observations

Time (PST) Temp. Dew Point Humidity Pressure Visibility Wind Dir Wind Speed Gust Speed Precip Events Conditions
12:23 AM 55.4 °F 26.6 °F 33% 29.90 in 10.0 mi SW 19.6 mph - N/A   Clear
12:53 AM 55.9 °F 25.0 °F 30% 29.85 in 10.0 mi SW 23.0 mph 31.1 mph N/A   Clear
1:53 AM 55.9 °F 27.0 °F 33% 29.83 in 10.0 mi SW 15.0 mph 26.5 mph N/A   Clear
2:53 AM 52.0 °F 30.9 °F 45% 29.84 in 10.0 mi Calm Calm - N/A   Clear
3:36 AM 51.8 °F 32.0 °F 47% 29.86 in 10.0 mi SW 18.4 mph - N/A   Clear
3:53 AM 52.0 °F 33.1 °F 49% 29.82 in 10.0 mi SW 19.6 mph 27.6 mph N/A   Clear
4:53 AM 48.9 °F 36.0 °F 61% 29.83 in 10.0 mi Variable 4.6 mph - N/A   Clear
5:53 AM 48.9 °F 36.0 °F 61% 29.82 in 10.0 mi SW 23.0 mph - N/A   Clear
6:53 AM 48.9 °F 37.9 °F 66% 29.83 in 10.0 mi SW 29.9 mph 34.5 mph N/A   Clear
7:53 AM 51.1 °F 39.0 °F 63% 29.84 in 10.0 mi SSW 25.3 mph 32.2 mph N/A   Clear
8:53 AM 54.0 °F 37.9 °F 55% 29.84 in 10.0 mi SSW 26.5 mph - N/A   Clear
9:53 AM 55.9 °F 39.0 °F 53% 29.86 in 10.0 mi SW 20.7 mph - N/A   Clear
10:53 AM 55.9 °F 41.0 °F 57% 29.86 in 10.0 mi WSW 24.2 mph 28.8 mph N/A   Clear
11:53 AM 53.1 °F 41.0 °F 64% 29.85 in 10.0 mi West 24.2 mph - N/A   Clear
12:53 PM 53.1 °F 42.1 °F 66% 29.82 in 10.0 mi West 18.4 mph - N/A   Overcast
1:53 PM 52.0 °F 42.1 °F 69% 29.81 in 10.0 mi West 16.1 mph - N/A   Overcast
2:53 PM 51.1 °F 43.0 °F 74% 29.81 in 10.0 mi West 16.1 mph - N/A   Overcast
3:53 PM 51.1 °F 42.1 °F 71% 29.80 in 10.0 mi WSW 16.1 mph - N/A   Partly Cloudy
4:53 PM 51.1 °F 39.9 °F 66% 29.81 in 10.0 mi WSW 15.0 mph - N/A   Mostly Cloudy
5:53 PM 51.1 °F 37.9 °F 61% 29.81 in 10.0 mi WSW 12.7 mph - N/A   Overcast
6:53 PM 51.1 °F 39.0 °F 63% 29.81 in 10.0 mi WSW 9.2 mph - N/A   Overcast
7:53 PM 51.1 °F 41.0 °F 68% 29.80 in 10.0 mi WSW 9.2 mph - N/A   Overcast
8:53 PM 51.1 °F 39.9 °F 66% 29.80 in 10.0 mi West 9.2 mph - N/A   Overcast
9:53 PM 50.0 °F 41.0 °F 71% 29.78 in 10.0 mi WNW 6.9 mph - N/A   Overcast
10:53 PM 52.0 °F 39.0 °F 61% 29.78 in 10.0 mi SE 11.5 mph 18.4 mph N/A   Overcast
11:53 PM 50.0 °F 41.0 °F 71% 29.77 in 10.0 mi NW 6.9 mph - 0.00 in Rain Light Rain